Voltar ao catálogo

CZ-6A DEB

AtivoPO
NORAD 61389·DEBRIS·🇨🇳 China

Lançado Aug 6, 2024 de Taiyuan Satellite Launch Center

Loading…

Próximas Passagens (próximas 24 horas)

TLE

AtualizadoSource: Space-Track

Época: Sep 14, 2026, 00:48 UTC

1 61389U 24140XE  26257.03383604  .00001458  00000-0  64405-3 0  9997
2 61389  89.0324 267.8661 0051036 263.0675  96.4709 14.22122135104929

Acompanhe CZ-6A DEB em tempo real com AllMySat

Download on the App Store